Location: Newark
(43.6583°N, 1.6617°E)
Time: 04:18:19
(UTC+00:00)

Vanguard 2 Rocket - Pass Details

Date: 27 August 2019
Orbit: 554 x 3326 km, 32.9° (Epoch: 13 October)

Event Time Altitude Azimuth Distance (km) Brightness Sun altitude
Exits shadow 03:29:37 22° 241° (WSW) 3,542 9.2 -17.5°
Maximum altitude 03:38:26 56° 174° (S) 2,932 9.2 -16.1°
Drops below altitude 10° 03:56:39 10° 104° (ESE) 6,211 11.8 -13.3°
Sets 04:01:52 0° 101° (E) 7,311 12.4 -12.5°
